CRYOSAT 2

Satellite information

Favourite Embed

Satellite Type and Status

PAYLOADIN ORBIT

Key statistics

Satellite CRYOSAT 2 at a glance.

Uptime

5507

Days in orbit

Revolutions

≈ 14.5

Per day

Orbit

SSO

Sun Synchronous Orbit

Inclination

92.0

Latest

Satellite identification and parameters

Extended collection of information and parameters for CRYOSAT 2.

Object identification

Identified? True

Debris? False

Object name: CRYOSAT 2

International designator: 2010-013A

Object number (NORAD): 36508

Object ID (CCSDS): 36508

Country: EUROPEAN SPACE AGENCY (ESA)

Current information (Y/N): Y

RCS size: LARGE

Orbital parameters

Period: 99.18 minutes

Inclination: 92.0126 deg

SMA: 7097.559 km

Apoapsis: 720.407 km

Periapsis: 718.44 km

RAAN: 178.9583 deg

Eccentricy: 0.0001386

Argument of periapsis: 95.3694 deg

Mean anomaly: 264.7671 deg

Mean motion: 14.51908597 rev/day

Mean motion (dot): 0.00000223 rev/day2

B* drag term: 0.000054623 1/REarth

Two-line elements (TLE)

Creation date: May 6, 2025, 3:54 a.m.

Reference frame: TEME

Reference center: EARTH

Epoch: May 5, 2025, 9:38 p.m. UTC

TLE line 0: 0 CRYOSAT 2

TLE line 1: 1 36508U 10013A 25125.90161878 .00000223 00000-0 54623-4 0 9993

TLE line 2: 2 36508 92.0126 178.9583 0001386 95.3694 264.7671 14.51908597798982

Live tracking on map

Real-time ground track for satellite CRYOSAT 2.

In-orbit conjunctions

There are no conjunctions computed for CRYOSAT 2, at the moment. Check back to stay up to date, as we update our databases every day.

Go to all conjunctions

Associated space launch

CRYOSAT 2 was lifted into orbit during the mission ‘Dnepr 1 | Cryosat-2’, on board a Dnepr space rocket.

The launch took place on April 8, 2010, 1:57 p.m. from 109/95.

For more information about the launch, click the button.

Launch to space Dnepr 1 | Cryosat-2
Dnepr 1 | Cryosat-2

Agency: N/A

Status: Launch Successful

Launch date: April 8, 2010, 1:57 p.m. UTC

Rocket: Dnepr

Launch pad: 109/95

Location: Baikonur Cosmodrome, Republic of Kazakhstan

...

Latest news about this satellite

News about space launch
ESA’s Long-Serving CryoSat Satellite Avoids Early End to its Mission

The European Space Agency has avoided an early end to its CryoSat mission after a fuel leak was detected aboard the satellite. CryoSat was launched aboard a Dnepr rocket from Baikonur in April 2010. The satellite’s mission is dedicated to measuring the th...


Newsletter sign-up

Weekly statistics, charts and insights to help you stay on top of the space industry.